| time (UTC) | temp F | wind direction | speed MPH | gust MPH | rain 1hr in | rain 24hr in | rain mn in | humidity % | barometer mb |
| 20260510174907 | 57 | 190 | 3.0 | 7.0 | 0.00 | 0.00 | 0.00 | 79 | 1019.4 |
| 20260510174407 | 57 | 212 | 4.0 | 4.0 | 0.00 | 0.00 | 0.00 | 80 | 1019.3 |
| 20260510173907 | 57 | 193 | 2.0 | 4.0 | 0.00 | 0.00 | 0.00 | 79 | 1019.4 |
| 20260510173407 | 57 | 182 | 1.0 | 6.0 | 0.00 | 0.00 | 0.00 | 79 | 1019.3 |
| 20260510172907 | 57 | 360 | 2.0 | 6.0 | 0.00 | 0.00 | 0.00 | 79 | 1019.1 |
| 20260510172407 | 57 | 179 | 4.0 | 4.0 | 0.00 | 0.00 | 0.00 | 81 | 1019.3 |
| 20260510171907 | 57 | 180 | 4.0 | 4.0 | 0.00 | 0.00 | 0.00 | 80 | 1019.9 |
| 20260510171007 | 57 | 194 | 4.0 | 5.0 | 0.00 | 0.00 | 0.00 | 82 | 1019.2 |
| 20260510170506 | 56 | 360 | 5.0 | 5.0 | 0.00 | 0.00 | 0.00 | 81 | 1019.0 |
| 20260510170006 | 57 | 360 | 4.0 | 4.0 | 0.00 | 0.00 | 0.00 | 82 | 1018.9 |
| 20260510165507 | 57 | 360 | 1.0 | 4.0 | 0.00 | 0.00 | 0.00 | 82 | 1019.0 |
| 20260510165007 | 56 | 360 | 1.0 | 4.0 | 0.00 | 0.00 | 0.00 | 83 | 1019.0 |
| 20260510164307 | 56 | 360 | 3.0 | 5.0 | 0.00 | 0.00 | 0.00 | 81 | 1019.0 |
| 20260510163807 | 57 | 146 | 4.0 | 5.0 | 0.00 | 0.00 | 0.00 | 82 | 1019.0 |
| 20260510163307 | 57 | 182 | 2.0 | 5.0 | 0.00 | 0.00 | 0.00 | 83 | 1018.9 |
| 20260510162807 | 56 | 197 | 0.0 | 5.0 | 0.00 | 0.00 | 0.00 | 86 | 1019.0 |
| 20260510162307 | 56 | 177 | 1.0 | 3.0 | 0.00 | 0.00 | 0.00 | 85 | 1018.9 |
| 20260510161607 | 56 | 196 | 2.0 | 5.0 | 0.00 | 0.00 | 0.00 | 87 | 1018.8 |
| 20260510161106 | 56 | 360 | 2.0 | 5.0 | 0.00 | 0.00 | 0.00 | 87 | 1018.9 |
| 20260510160606 | 55 | 360 | 5.0 | 5.0 | 0.00 | 0.00 | 0.00 | 89 | 1018.9 |
| 20260510160107 | 55 | 192 | 2.0 | 4.0 | 0.00 | 0.00 | 0.00 | 89 | 1018.9 |
| 20260510155607 | 54 | 223 | 1.0 | 4.0 | 0.00 | 0.00 | 0.00 | 91 | 1018.7 |
| 20260510155107 | 54 | 178 | 2.0 | 4.0 | 0.00 | 0.00 | 0.00 | 91 | 1018.7 |
| 20260510154406 | 54 | 182 | 3.0 | 4.0 | 0.00 | 0.00 | 0.00 | 93 | 1018.2 |
| 20260510153907 | 53 | 191 | 1.0 | 2.0 | 0.00 | 0.00 | 0.00 | 94 | 1018.5 |
| 20260510153407 | 53 | 197 | 2.0 | 2.0 | 0.00 | 0.00 | 0.00 | 94 | 1018.2 |
| 20260510152707 | 52 | 248 | 0.0 | 3.0 | 0.00 | 0.00 | 0.00 | 96 | 1018.1 |
| 20260510152207 | 52 | 248 | 3.0 | 3.0 | 0.00 | 0.00 | 0.00 | 97 | 1018.2 |
| 20260510151707 | 52 | 281 | 1.0 | 2.0 | 0.00 | 0.00 | 0.00 | 97 | 1018.6 |
| 20260510151207 | 51 | 360 | 0.0 | 1.0 | 0.00 | 0.00 | 0.00 | 97 | 1018.1 |
| 20260510150707 | 51 | 360 | 1.0 | 2.0 | 0.00 | 0.00 | 0.00 | 97 | 1018.2 |
| 20260510150206 | 51 | 360 | 1.0 | 2.0 | 0.00 | 0.00 | 0.00 | 98 | 1017.9 |
| 20260510145707 | 50 | 360 | 0.0 | 1.0 | 0.00 | 0.00 | 0.00 | 98 | 1017.9 |
| 20260510145207 | 50 | 360 | 0.0 | 2.0 | 0.00 | 0.00 | 0.00 | 98 | 1017.9 |
| 20260510144707 | 50 | 360 | 0.0 | 3.0 | 0.00 | 0.00 | 0.00 | 98 | 1017.9 |
| 20260510144208 | 50 | 360 | 0.0 | 3.0 | 0.00 | 0.00 | 0.00 | 98 | 1018.0 |
| 20260510143707 | 50 | 279 | 2.0 | 2.0 | 0.00 | 0.00 | 0.00 | 99 | 1018.1 |
| 20260510143207 | 49 | 279 | 2.0 | 2.0 | 0.00 | 0.00 | 0.00 | 99 | 1018.5 |
| 20260510142707 | 49 | 360 | 1.0 | 1.0 | 0.00 | 0.00 | 0.00 | 99 | 1018.3 |
| 20260510141607 | 48 | 360 | 0.0 | 1.0 | 0.00 | 0.00 | 0.00 | 98 | 1018.1 |
| 20260510141107 | 48 | 360 | 1.0 | 3.0 | 0.00 | 0.00 | 0.00 | 98 | 1017.7 |
| 20260510140408 | 48 | 360 | 1.0 | 3.0 | 0.00 | 0.00 | 0.00 | 98 | 1017.5 |
| 20260510135907 | 48 | 278 | 1.0 | 1.0 | 0.00 | 0.00 | 0.00 | 98 | 1017.9 |
| 20260510135407 | 47 | 274 | 1.0 | 1.0 | 0.00 | 0.00 | 0.00 | 98 | 1017.9 |
| 20260510134707 | 47 | 278 | 0.0 | 2.0 | 0.00 | 0.00 | 0.00 | 98 | 1017.9 |
| 20260510134207 | 47 | 278 | 2.0 | 2.0 | 0.00 | 0.00 | 0.00 | 98 | 1017.5 |
| 20260510133707 | 47 | 277 | 0.0 | 1.0 | 0.00 | 0.00 | 0.00 | 98 | 1018.1 |
| 20260510133207 | 47 | 277 | 0.0 | 1.0 | 0.00 | 0.00 | 0.00 | 98 | 1018.1 |
| 20260510132707 | 47 | 277 | 0.0 | 1.0 | 0.00 | 0.00 | 0.00 | 98 | 1017.8 |
| 20260510132207 | 47 | 218 | 1.0 | 2.0 | 0.00 | 0.00 | 0.00 | 98 | 1017.9 |
| 20260510131507 | 47 | 218 | 1.0 | 2.0 | 0.00 | 0.00 | 0.00 | 98 | 1017.9 |
| 20260510131007 | 46 | 218 | 0.0 | 2.0 | 0.00 | 0.00 | 0.00 | 98 | 1018.1 |
| 20260510130507 | 46 | 218 | 2.0 | 2.0 | 0.00 | 0.00 | 0.00 | 98 | 1017.7 |
| 20260510130007 | 46 | 218 | 1.0 | 2.0 | 0.00 | 0.00 | 0.00 | 98 | 1017.4 |
| 20260510125307 | 46 | 218 | 0.0 | 2.0 | 0.00 | 0.00 | 0.00 | 98 | 1017.9 |
| 20260510124807 | 46 | 218 | 1.0 | 2.0 | 0.00 | 0.00 | 0.00 | 97 | 1017.8 |
| 20260510124307 | 46 | 218 | 0.0 | 1.0 | 0.00 | 0.00 | 0.00 | 97 | 1017.9 |
| 20260510123807 | 46 | 218 | 0.0 | 1.0 | 0.00 | 0.00 | 0.00 | 97 | 1017.7 |
| 20260510123307 | 46 | 218 | 0.0 | 2.0 | 0.00 | 0.00 | 0.00 | 97 | 1017.4 |
| 20260510122807 | 47 | 217 | 1.0 | 2.0 | 0.00 | 0.00 | 0.00 | 97 | 1017.4 |
| 20260510122307 | 46 | 217 | 1.0 | 2.0 | 0.00 | 0.00 | 0.00 | 97 | 1017.5 |
| 20260510121807 | 47 | 217 | 1.0 | 2.0 | 0.00 | 0.00 | 0.00 | 97 | 1017.5 |
| 20260510121307 | 47 | 218 | 0.0 | 2.0 | 0.00 | 0.00 | 0.00 | 97 | 1017.4 |
| 20260510120712 | 46 | 218 | 2.0 | 2.0 | 0.00 | 0.00 | 0.00 | 97 | 1017.6 |
| 20260510120207 | 46 | 218 | 1.0 | 1.0 | 0.00 | 0.00 | 0.00 | 97 | 1017.8 |
| 20260510115707 | 46 | 218 | 0.0 | 1.0 | 0.00 | 0.00 | 0.00 | 97 | 1017.8 |
| 20260510115206 | 46 | 218 | 0.0 | 1.0 | 0.00 | 0.00 | 0.00 | 97 | 1017.7 |
| 20260510114707 | 46 | 219 | 0.0 | 1.0 | 0.00 | 0.00 | 0.00 | 97 | 1017.7 |
| 20260510114206 | 46 | 218 | 0.0 | 1.0 | 0.00 | 0.00 | 0.00 | 96 | 1017.8 |
| 20260510113707 | 46 | 218 | 1.0 | 2.0 | 0.00 | 0.00 | 0.00 | 96 | 1017.9 |
| 20260510113007 | 47 | 219 | 0.0 | 2.0 | 0.00 | 0.00 | 0.00 | 96 | 1017.9 |
| 20260510112507 | 47 | 219 | 1.0 | 2.0 | 0.00 | 0.00 | 0.00 | 96 | 1017.9 |
| 20260510112007 | 47 | 219 | 0.0 | 1.0 | 0.00 | 0.00 | 0.00 | 96 | 1017.8 |
| 20260510111507 | 47 | 219 | 1.0 | 1.0 | 0.00 | 0.00 | 0.00 | 96 | 1017.8 |
| 20260510111007 | 47 | 219 | 0.0 | 0.0 | 0.00 | 0.00 | 0.00 | 96 | 1017.8 |
| 20260510110507 | 48 | 219 | 0.0 | 1.0 | 0.00 | 0.00 | 0.00 | 96 | 1017.7 |
| 20260510110007 | 48 | 219 | 0.0 | 1.0 | 0.00 | 0.00 | 0.00 | 96 | 1017.5 |
| 20260510105307 | 48 | 219 | 0.0 | 2.0 | 0.00 | 0.00 | 0.00 | 96 | 1017.4 |
| 20260510104607 | 48 | 219 | 0.0 | 2.0 | 0.00 | 0.00 | 0.00 | 96 | 1017.4 |
| 20260510104107 | 48 | 219 | 2.0 | 2.0 | 0.00 | 0.00 | 0.00 | 95 | 1017.6 |
| 20260510103607 | 48 | 219 | 2.0 | 2.0 | 0.00 | 0.00 | 0.00 | 94 | 1017.8 |
| 20260510103106 | 49 | 219 | 0.0 | 4.0 | 0.00 | 0.00 | 0.00 | 96 | 1017.7 |
| 20260510102606 | 49 | 219 | 0.0 | 4.0 | 0.00 | 0.00 | 0.00 | 96 | 1017.6 |
| 20260510102107 | 49 | 219 | 4.0 | 4.0 | 0.00 | 0.00 | 0.00 | 96 | 1017.5 |
| 20260510101607 | 49 | 183 | 2.0 | 2.0 | 0.00 | 0.00 | 0.00 | 96 | 1017.4 |
| 20260510101107 | 49 | 183 | 1.0 | 2.0 | 0.00 | 0.00 | 0.00 | 96 | 1017.5 |
| 20260510100607 | 49 | 183 | 1.0 | 2.0 | 0.00 | 0.00 | 0.00 | 95 | 1017.5 |
| 20260510095907 | 49 | 182 | 1.0 | 2.0 | 0.00 | 0.00 | 0.00 | 94 | 1017.5 |
| 20260510095406 | 49 | 181 | 0.0 | 2.0 | 0.00 | 0.00 | 0.00 | 95 | 1017.3 |
| 20260510094907 | 49 | 182 | 1.0 | 2.0 | 0.00 | 0.00 | 0.00 | 94 | 1017.2 |
| 20260510094007 | 50 | 181 | 1.0 | 1.0 | 0.00 | 0.00 | 0.00 | 94 | 1017.0 |
| 20260510093507 | 50 | 181 | 0.0 | 2.0 | 0.00 | 0.00 | 0.00 | 93 | 1016.9 |
| 20260510092807 | 50 | 181 | 0.0 | 3.0 | 0.00 | 0.00 | 0.00 | 93 | 1016.7 |
| 20260510092107 | 51 | 183 | 0.0 | 3.0 | 0.00 | 0.00 | 0.00 | 94 | 1016.9 |
| 20260510091606 | 51 | 177 | 2.0 | 2.0 | 0.00 | 0.00 | 0.00 | 94 | 1017.0 |
| 20260510091107 | 51 | 190 | 0.0 | 2.0 | 0.00 | 0.00 | 0.00 | 94 | 1017.0 |
| 20260510090607 | 51 | 190 | 0.0 | 3.0 | 0.00 | 0.00 | 0.00 | 94 | 1017.0 |
| 20260510090107 | 51 | 190 | 1.0 | 3.0 | 0.00 | 0.00 | 0.00 | 93 | 1017.1 |
| 20260510085607 | 51 | 190 | 2.0 | 4.0 | 0.00 | 0.00 | 0.00 | 93 | 1017.1 |
| 20260510085107 | 51 | 190 | 1.0 | 4.0 | 0.00 | 0.00 | 0.00 | 93 | 1017.1 |
| 20260510084607 | 51 | 178 | 4.0 | 4.0 | 0.00 | 0.00 | 0.00 | 93 | 1017.1 |
| 20260510084107 | 51 | 170 | 1.0 | 3.0 | 0.00 | 0.00 | 0.00 | 94 | 1017.1 |
| 20260510083607 | 51 | 167 | 3.0 | 3.0 | 0.00 | 0.00 | 0.00 | 94 | 1017.0 |
| 20260510083107 | 51 | 175 | 1.0 | 2.0 | 0.00 | 0.00 | 0.00 | 93 | 1017.0 |
| 20260510082607 | 51 | 175 | 2.0 | 2.0 | 0.00 | 0.00 | 0.00 | 93 | 1017.0 |
| 20260510082106 | 51 | 176 | 1.0 | 3.0 | 0.00 | 0.00 | 0.00 | 92 | 1016.9 |
| 20260510081607 | 51 | 176 | 0.0 | 3.0 | 0.00 | 0.00 | 0.00 | 93 | 1016.8 |
| 20260510081107 | 51 | 190 | 0.0 | 4.0 | 0.00 | 0.00 | 0.00 | 93 | 1016.8 |
| 20260510080607 | 51 | 191 | 1.0 | 4.0 | 0.00 | 0.00 | 0.00 | 93 | 1016.8 |
| 20260510075907 | 51 | 178 | 2.0 | 2.0 | 0.00 | 0.00 | 0.00 | 92 | 1016.8 |
| 20260510075407 | 52 | 178 | 1.0 | 2.0 | 0.00 | 0.00 | 0.00 | 92 | 1016.7 |
| 20260510074907 | 52 | 179 | 2.0 | 2.0 | 0.00 | 0.00 | 0.00 | 91 | 1016.7 |
| 20260510074407 | 52 | 179 | 0.0 | 2.0 | 0.00 | 0.00 | 0.00 | 91 | 1016.7 |
| 20260510073907 | 53 | 179 | 1.0 | 2.0 | 0.00 | 0.00 | 0.00 | 90 | 1016.7 |
| 20260510073407 | 53 | 179 | 1.0 | 2.0 | 0.00 | 0.00 | 0.00 | 90 | 1016.6 |
| 20260510072907 | 53 | 360 | 2.0 | 2.0 | 0.00 | 0.00 | 0.00 | 90 | 1016.6 |
| 20260510072406 | 54 | 360 | 1.0 | 4.0 | 0.00 | 0.00 | 0.00 | 90 | 1016.6 |
| 20260510071907 | 54 | 360 | 2.0 | 4.0 | 0.00 | 0.00 | 0.00 | 89 | 1016.5 |
| 20260510071207 | 54 | 360 | 2.0 | 2.0 | 0.00 | 0.00 | 0.00 | 90 | 1016.6 |
| 20260510070707 | 55 | 175 | 0.0 | 2.0 | 0.00 | 0.00 | 0.00 | 89 | 1016.5 |
| 20260510070207 | 55 | 180 | 0.0 | 2.0 | 0.00 | 0.00 | 0.00 | 89 | 1016.4 |
| 20260510065706 | 55 | 178 | 2.0 | 3.0 | 0.00 | 0.00 | 0.00 | 89 | 1016.4 |
| 20260510065007 | 56 | 175 | 2.0 | 6.0 | 0.00 | 0.00 | 0.00 | 89 | 1016.3 |
| 20260510064507 | 56 | 166 | 4.0 | 6.0 | 0.00 | 0.00 | 0.00 | 89 | 1016.3 |
| 20260510064006 | 56 | 169 | 2.0 | 4.0 | 0.00 | 0.00 | 0.00 | 90 | 1016.4 |
| 20260510063507 | 56 | 180 | 1.0 | 5.0 | 0.00 | 0.00 | 0.00 | 90 | 1016.4 |
| 20260510062807 | 56 | 360 | 3.0 | 5.0 | 0.00 | 0.00 | 0.00 | 91 | 1016.3 |
| 20260510062307 | 56 | 360 | 2.0 | 5.0 | 0.00 | 0.00 | 0.00 | 93 | 1016.2 |
| 20260510061807 | 55 | 360 | 3.0 | 4.0 | 0.00 | 0.00 | 0.00 | 95 | 1016.3 |
| 20260510061306 | 55 | 360 | 1.0 | 3.0 | 0.00 | 0.00 | 0.00 | 96 | 1016.1 |
| 20260510060707 | 54 | 175 | 2.0 | 3.0 | 0.00 | 0.00 | 0.00 | 95 | 1016.1 |
| 20260510060207 | 53 | 168 | 2.0 | 2.0 | 0.00 | 0.00 | 0.00 | 93 | 1016.1 |
| 20260510055707 | 54 | 168 | 0.0 | 2.0 | 0.00 | 0.00 | 0.00 | 94 | 1016.1 |
| 20260510055207 | 54 | 213 | 1.0 | 2.0 | 0.00 | 0.00 | 0.00 | 93 | 1016.1 |
| 20260510054706 | 54 | 213 | 2.0 | 2.0 | 0.00 | 0.00 | 0.00 | 93 | 1016.1 |
| 20260510054207 | 54 | 213 | 2.0 | 2.0 | 0.00 | 0.00 | 0.00 | 93 | 1016.0 |
| 20260510053707 | 54 | 213 | 1.0 | 1.0 | 0.00 | 0.00 | 0.00 | 93 | 1016.0 |
| 20260510053207 | 53 | 213 | 0.0 | 2.0 | 0.00 | 0.00 | 0.00 | 92 | 1015.9 |
| 20260510052707 | 54 | 213 | 0.0 | 2.0 | 0.00 | 0.00 | 0.00 | 91 | 1016.0 |
| 20260510052207 | 54 | 213 | 0.0 | 1.0 | 0.00 | 0.00 | 0.00 | 91 | 1015.9 |
| 20260510051707 | 54 | 213 | 0.0 | 0.0 | 0.00 | 0.00 | 0.00 | 90 | 1015.9 |
| 20260510051206 | 54 | 212 | 0.0 | 1.0 | 0.00 | 0.00 | 0.00 | 90 | 1016.0 |
| 20260510050707 | 54 | 213 | 0.0 | 1.0 | 0.00 | 0.00 | 0.00 | 89 | 1015.9 |
| 20260510050207 | 55 | 212 | 0.0 | 1.0 | 0.00 | 0.00 | 0.00 | 89 | 1015.9 |
| 20260510045707 | 55 | 212 | 1.0 | 1.0 | 0.00 | 0.00 | 0.00 | 89 | 1015.9 |
| 20260510045007 | 55 | 360 | 0.0 | 1.0 | 0.00 | 0.00 | 0.00 | 89 | 1015.9 |
| 20260510044307 | 55 | 360 | 0.0 | 1.0 | 0.00 | 0.00 | 0.00 | 88 | 1015.9 |
| 20260510043808 | 56 | 360 | 0.0 | 0.0 | 0.00 | 0.00 | 0.00 | 86 | 1015.8 |
| 20260510043307 | 56 | 360 | 0.0 | 0.0 | 0.00 | 0.00 | 0.00 | 86 | 1015.8 |
| 20260510042806 | 56 | 360 | 0.0 | 1.0 | 0.00 | 0.00 | 0.00 | 86 | 1015.8 |
| 20260510042307 | 56 | 360 | 0.0 | 1.0 | 0.00 | 0.00 | 0.00 | 85 | 1015.6 |
| 20260510041807 | 57 | 360 | 0.0 | 1.0 | 0.00 | 0.00 | 0.00 | 84 | 1015.6 |
| 20260510041307 | 57 | 360 | 0.0 | 1.0 | 0.00 | 0.00 | 0.00 | 83 | 1015.5 |
| 20260510040807 | 58 | 213 | 0.0 | 1.0 | 0.00 | 0.00 | 0.00 | 82 | 1015.6 |
| 20260510040307 | 58 | 213 | 1.0 | 1.0 | 0.00 | 0.00 | 0.00 | 82 | 1015.5 |
| 20260510035807 | 59 | 213 | 0.0 | 1.0 | 0.00 | 0.00 | 0.00 | 82 | 1015.5 |
| 20260510035107 | 60 | 213 | 1.0 | 1.0 | 0.00 | 0.00 | 0.00 | 81 | 1015.3 |
| 20260510034607 | 60 | 213 | 1.0 | 1.0 | 0.00 | 0.00 | 0.00 | 80 | 1015.3 |
| 20260510034107 | 61 | 213 | 0.0 | 1.0 | 0.00 | 0.00 | 0.00 | 78 | 1015.2 |
| 20260510033407 | 62 | 213 | 0.0 | 1.0 | 0.00 | 0.00 | 0.00 | 76 | 1015.2 |
| 20260510032907 | 62 | 213 | 1.0 | 1.0 | 0.00 | 0.00 | 0.00 | 75 | 1015.2 |
| 20260510032407 | 63 | 360 | 0.0 | 1.0 | 0.00 | 0.00 | 0.00 | 75 | 1015.2 |
| 20260510031907 | 64 | 360 | 0.0 | 2.0 | 0.00 | 0.00 | 0.00 | 75 | 1015.1 |
| 20260510031406 | 64 | 360 | 1.0 | 2.0 | 0.00 | 0.00 | 0.00 | 74 | 1015.1 |
| 20260510030907 | 65 | 212 | 1.0 | 1.0 | 0.00 | 0.00 | 0.00 | 74 | 1015.2 |
| 20260510030407 | 66 | 360 | 0.0 | 1.0 | 0.00 | 0.00 | 0.00 | 71 | 1015.1 |
| 20260510025707 | 67 | 360 | 1.0 | 1.0 | 0.00 | 0.00 | 0.00 | 69 | 1015.1 |
| 20260510025107 | 68 | 360 | 0.0 | 1.0 | 0.00 | 0.00 | 0.00 | 65 | 1015.0 |
| 20260510024607 | 69 | 213 | 1.0 | 1.0 | 0.00 | 0.00 | 0.00 | 67 | 1015.0 |
| 20260510023907 | 70 | 213 | 0.0 | 1.0 | 0.00 | 0.00 | 0.00 | 61 | 1015.0 |
| 20260510023407 | 70 | 213 | 0.0 | 1.0 | 0.00 | 0.00 | 0.00 | 56 | 1014.9 |
| 20260510022907 | 70 | 213 | 0.0 | 2.0 | 0.00 | 0.00 | 0.00 | 57 | 1014.7 |
| 20260510022207 | 70 | 213 | 1.0 | 2.0 | 0.00 | 0.00 | 0.00 | 55 | 1014.7 |
| 20260510021707 | 70 | 209 | 0.0 | 2.0 | 0.00 | 0.00 | 0.00 | 55 | 1014.7 |
| 20260510021207 | 70 | 206 | 0.0 | 2.0 | 0.00 | 0.00 | 0.00 | 55 | 1014.6 |
| 20260510020706 | 70 | 153 | 1.0 | 3.0 | 0.00 | 0.00 | 0.00 | 56 | 1014.8 |
| 20260510020006 | 70 | 146 | 1.0 | 3.0 | 0.00 | 0.00 | 0.00 | 54 | 1014.9 |
| 20260510015507 | 71 | 216 | 1.0 | 4.0 | 0.00 | 0.00 | 0.00 | 55 | 1015.0 |
| 20260510015007 | 71 | 214 | 2.0 | 4.0 | 0.00 | 0.00 | 0.00 | 53 | 1015.1 |
| 20260510014506 | 71 | 211 | 1.0 | 6.0 | 0.00 | 0.00 | 0.00 | 58 | 1015.1 |
| 20260510014007 | 71 | 221 | 3.0 | 6.0 | 0.00 | 0.00 | 0.00 | 54 | 1015.1 |
| 20260510013507 | 71 | 196 | 5.0 | 5.0 | 0.00 | 0.00 | 0.00 | 54 | 1015.1 |
| 20260510012807 | 72 | 212 | 2.0 | 4.0 | 0.00 | 0.00 | 0.00 | 52 | 1015.3 |
| 20260510012307 | 72 | 191 | 2.0 | 4.0 | 0.00 | 0.00 | 0.00 | 55 | 1015.2 |
| 20260510011807 | 72 | 196 | 2.0 | 3.0 | 0.00 | 0.00 | 0.00 | 57 | 1015.4 |
| 20260510011307 | 72 | 200 | 1.0 | 5.0 | 0.00 | 0.00 | 0.00 | 54 | 1015.4 |
| 20260510010807 | 72 | 173 | 2.0 | 5.0 | 0.00 | 0.00 | 0.00 | 53 | 1015.4 |
| 20260510010307 | 72 | 196 | 3.0 | 4.0 | 0.00 | 0.00 | 0.00 | 52 | 1015.4 |
| 20260510005807 | 72 | 214 | 0.0 | 5.0 | 0.00 | 0.00 | 0.00 | 59 | 1015.4 |
| 20260510005307 | 71 | 246 | 1.0 | 5.0 | 0.00 | 0.00 | 0.00 | 52 | 1015.5 |
| 20260510004807 | 72 | 236 | 4.0 | 7.0 | 0.00 | 0.00 | 0.00 | 53 | 1015.6 |
| 20260510004107 | 72 | 236 | 5.0 | 7.0 | 0.00 | 0.00 | 0.00 | 55 | 1015.5 |
| 20260510003607 | 72 | 227 | 4.0 | 4.0 | 0.00 | 0.00 | 0.00 | 52 | 1015.5 |
| 20260510003107 | 72 | 238 | 3.0 | 4.0 | 0.00 | 0.00 | 0.00 | 52 | 1015.5 |
| 20260510002607 | 72 | 232 | 1.0 | 4.0 | 0.00 | 0.00 | 0.00 | 47 | 1015.6 |
| 20260510001907 | 72 | 254 | 2.0 | 5.0 | 0.00 | 0.00 | 0.00 | 50 | 1015.7 |
| 20260510001407 | 73 | 319 | 2.0 | 5.0 | 0.00 | 0.00 | 0.00 | 47 | 1015.8 |
| 20260510000707 | 73 | 267 | 3.0 | 8.0 | 0.00 | 0.00 | 0.00 | 49 | 1015.8 |
| 20260510000207 | 73 | 231 | 1.0 | 8.0 | 0.00 | 0.00 | 0.00 | 48 | 1015.8 |
| 20260509235707 | 73 | 250 | 8.0 | 8.0 | 0.00 | 0.00 | 0.00 | 49 | 1015.9 |
| 20260509235207 | 72 | 254 | 3.0 | 5.0 | 0.00 | 0.00 | 0.00 | 46 | 1016.0 |
| 20260509234707 | 72 | 306 | 2.0 | 4.0 | 0.00 | 0.00 | 0.00 | 48 | 1015.9 |
| 20260509234207 | 72 | 269 | 3.0 | 7.0 | 0.00 | 0.00 | 0.00 | 46 | 1016.1 |
| 20260509233607 | 72 | 327 | 4.0 | 7.0 | 0.00 | 0.00 | 0.00 | 48 | 1016.0 |
| 20260509233007 | 72 | 257 | 3.0 | 6.0 | 0.00 | 0.00 | 0.00 | 45 | 1016.1 |
| 20260509232507 | 73 | 287 | 3.0 | 5.0 | 0.00 | 0.00 | 0.00 | 48 | 1016.1 |
| 20260509232007 | 73 | 231 | 3.0 | 6.0 | 0.00 | 0.00 | 0.00 | 48 | 1016.1 |
| 20260509231507 | 73 | 245 | 1.0 | 6.0 | 0.00 | 0.00 | 0.00 | 48 | 1016.2 |
| 20260509231007 | 73 | 309 | 4.0 | 4.0 | 0.00 | 0.00 | 0.00 | 45 | 1016.2 |
| 20260509230307 | 73 | 247 | 4.0 | 4.0 | 0.00 | 0.00 | 0.00 | 46 | 1016.3 |
| 20260509225407 | 73 | 291 | 3.0 | 7.0 | 0.00 | 0.00 | 0.00 | 46 | 1016.3 |
| 20260509224906 | 73 | 297 | 1.0 | 7.0 | 0.00 | 0.00 | 0.00 | 47 | 1016.5 |
| 20260509224407 | 74 | 249 | 7.0 | 7.0 | 0.00 | 0.00 | 0.00 | 45 | 1016.5 |
| 20260509223907 | 73 | 262 | 0.0 | 8.0 | 0.00 | 0.00 | 0.00 | 46 | 1016.4 |
| 20260509223407 | 74 | 228 | 2.0 | 8.0 | 0.00 | 0.00 | 0.00 | 48 | 1016.6 |
| 20260509222907 | 74 | 236 | 3.0 | 6.0 | 0.00 | 0.00 | 0.00 | 51 | 1016.6 |
| 20260509222207 | 73 | 280 | 2.0 | 7.0 | 0.00 | 0.00 | 0.00 | 54 | 1016.5 |
| 20260509221507 | 73 | 292 | 2.0 | 7.0 | 0.00 | 0.00 | 0.00 | 47 | 1016.8 |
| 20260509221007 | 73 | 235 | 5.0 | 5.0 | 0.00 | 0.00 | 0.00 | 48 | 1016.9 |
| 20260509220507 | 73 | 230 | 4.0 | 5.0 | 0.00 | 0.00 | 0.00 | 47 | 1016.9 |
| 20260509215807 | 74 | 194 | 4.0 | 6.0 | 0.00 | 0.00 | 0.00 | 51 | 1017.0 |
| 20260509215107 | 74 | 215 | 2.0 | 7.0 | 0.00 | 0.00 | 0.00 | 46 | 1017.0 |
| 20260509214607 | 75 | 227 | 7.0 | 7.0 | 0.00 | 0.00 | 0.00 | 47 | 1017.3 |
| 20260509214107 | 76 | 179 | 3.0 | 3.0 | 0.00 | 0.00 | 0.00 | 52 | 1017.2 |
| 20260509213607 | 76 | 131 | 1.0 | 4.0 | 0.00 | 0.00 | 0.00 | 52 | 1017.3 |
| 20260509213107 | 76 | 129 | 1.0 | 5.0 | 0.00 | 0.00 | 0.00 | 49 | 1017.3 |
| 20260509212607 | 75 | 158 | 1.0 | 5.0 | 0.00 | 0.00 | 0.00 | 56 | 1017.3 |
| 20260509212107 | 75 | 176 | 5.0 | 6.0 | 0.00 | 0.00 | 0.00 | 53 | 1017.5 |
| 20260509211607 | 75 | 119 | 3.0 | 6.0 | 0.00 | 0.00 | 0.00 | 57 | 1017.5 |
| 20260509210707 | 75 | 147 | 1.0 | 5.0 | 0.00 | 0.00 | 0.00 | 54 | 1017.7 |
| 20260509210207 | 75 | 119 | 5.0 | 6.0 | 0.00 | 0.00 | 0.00 | 55 | 1017.7 |
| 20260509205707 | 75 | 169 | 2.0 | 6.0 | 0.00 | 0.00 | 0.00 | 50 | 1017.9 |
| 20260509205007 | 74 | 144 | 2.0 | 3.0 | 0.00 | 0.00 | 0.00 | 59 | 1017.9 |
| 20260509204507 | 74 | 160 | 1.0 | 3.0 | 0.00 | 0.00 | 0.00 | 55 | 1017.9 |
| 20260509204007 | 73 | 169 | 1.0 | 4.0 | 0.00 | 0.00 | 0.00 | 55 | 1017.9 |
| 20260509203507 | 73 | 167 | 0.0 | 6.0 | 0.00 | 0.00 | 0.00 | 53 | 1018.0 |
| 20260509203007 | 73 | 142 | 2.0 | 6.0 | 0.00 | 0.00 | 0.00 | 56 | 1017.9 |
| 20260509202507 | 73 | 183 | 6.0 | 6.0 | 0.00 | 0.00 | 0.00 | 57 | 1018.2 |
| 20260509202007 | 72 | 137 | 4.0 | 4.0 | 0.00 | 0.00 | 0.00 | 59 | 1018.3 |
| 20260509201507 | 72 | 157 | 2.0 | 4.0 | 0.00 | 0.00 | 0.00 | 58 | 1018.3 |
| 20260509201007 | 71 | 179 | 0.0 | 3.0 | 0.00 | 0.00 | 0.00 | 58 | 1018.3 |
| 20260509200507 | 71 | 179 | 1.0 | 3.0 | 0.00 | 0.00 | 0.00 | 62 | 1018.3 |
| 20260509200007 | 71 | 186 | 3.0 | 3.0 | 0.00 | 0.00 | 0.00 | 59 | 1018.5 |
| 20260509195307 | 70 | 140 | 2.0 | 2.0 | 0.00 | 0.00 | 0.00 | 62 | 1018.7 |
| 20260509194807 | 71 | 181 | 2.0 | 4.0 | 0.00 | 0.00 | 0.00 | 62 | 1018.7 |
| 20260509194307 | 71 | 167 | 1.0 | 4.0 | 0.00 | 0.00 | 0.00 | 60 | 1018.9 |
| 20260509193807 | 71 | 157 | 1.0 | 4.0 | 0.00 | 0.00 | 0.00 | 64 | 1019.0 |
| 20260509193307 | 70 | 117 | 4.0 | 4.0 | 0.00 | 0.00 | 0.00 | 67 | 1018.9 |
| 20260509192807 | 70 | 189 | 3.0 | 5.0 | 0.00 | 0.00 | 0.00 | 65 | 1018.9 |
| 20260509192306 | 69 | 141 | 2.0 | 6.0 | 0.00 | 0.00 | 0.00 | 69 | 1019.0 |
| 20260509191807 | 68 | 166 | 5.0 | 6.0 | 0.00 | 0.00 | 0.00 | 67 | 1019.1 |
| 20260509191306 | 68 | 225 | 0.0 | 6.0 | 0.00 | 0.00 | 0.00 | 65 | 1019.2 |
| 20260509190807 | 68 | 175 | 2.0 | 6.0 | 0.00 | 0.00 | 0.00 | 65 | 1019.1 |
| 20260509190307 | 68 | 164 | 1.0 | 5.0 | 0.00 | 0.00 | 0.00 | 72 | 1019.1 |
| 20260509185607 | 67 | 167 | 1.0 | 5.0 | 0.00 | 0.00 | 0.00 | 70 | 1019.3 |
| 20260509184906 | 68 | 215 | 4.0 | 4.0 | 0.00 | 0.00 | 0.00 | 73 | 1019.3 |
| 20260509184407 | 67 | 182 | 2.0 | 7.0 | 0.00 | 0.00 | 0.00 | 71 | 1019.4 |
| 20260509183907 | 67 | 108 | 1.0 | 7.0 | 0.00 | 0.00 | 0.00 | 69 | 1019.4 |
| 20260509183406 | 66 | 46 | 2.0 | 4.0 | 0.00 | 0.00 | 0.00 | 72 | 1019.5 |
| 20260509182907 | 66 | 25 | 3.0 | 4.0 | 0.00 | 0.00 | 0.00 | 70 | 1019.6 |
| 20260509182407 | 66 | 142 | 2.0 | 4.0 | 0.00 | 0.00 | 0.00 | 74 | 1019.6 |
| 20260509181907 | 65 | 55 | 3.0 | 4.0 | 0.00 | 0.00 | 0.00 | 76 | 1019.6 |
| 20260509181407 | 64 | 169 | 2.0 | 4.0 | 0.00 | 0.00 | 0.00 | 76 | 1019.7 |
| 20260509180907 | 64 | 196 | 1.0 | 3.0 | 0.00 | 0.00 | 0.00 | 71 | 1019.7 |
| 20260509180407 | 65 | 184 | 3.0 | 3.0 | 0.00 | 0.00 | 0.00 | 75 | 1019.8 |
| 20260509175707 | 64 | 145 | 2.0 | 4.0 | 0.00 | 0.00 | 0.00 | 76 | 1019.9 |